#timestamp,LO_Frequency,Hit,StdDev 
1678215615.2,286046980.8,N
1678215635.1,286046980.1,N
1678215636.0,286046980.1,N
1678215655.8,286046985.9,N
1678215675.7,286046987.7,N
1678215695.5,286046989.5,N
1678215715.4,286046989.3,N
1678215735.2,286046992.2,N
1678215755.0,286046993.1,N
1678215755.9,286046993.1,N
1678215775.8,286046987.6,N
1678215795.6,286046986.7,N
1678215815.4,286046984.9,N
1678215835.3,286046980.5,Y
1678215855.1,286046993.1,P
1678215875.9,286046995.2,N
1678215895.7,286047000.7,N
1678215915.5,286046993.8,N
1678215935.4,286046991.0,N
1678215955.2,286046997.5,N
1678215975.0,286046997.8,N
1678215976.0,286046997.8,N
1678215995.8,286046996.5,N
1678216015.6,286047003.1,N
1678216035.5,286047010.6,N
1678216055.3,286047003.2,N
1678216075.1,286046996.9,N
1678216095.9,286046996.2,N
1678216115.7,286047002.1,N
1678216135.5,286047009.1,N
1678216155.4,286047003.6,N
1678216175.2,286047000.7,N
1678216195.1,286047003.1,N
1678216196.0,286047003.1,N
1678216215.8,286047004.7,N
1678216235.6,286047007.2,N
1678216255.5,286047003.8,N
1678216275.3,286046999.8,N
1678216295.2,286047001.1,N
1678216315.9,286046997.5,N
1678216335.7,286046995.9,N
1678216355.6,286046995.3,N
1678216375.4,286046998.3,N
1678216395.2,286046996.9,N
1678216415.1,286046998.0,N
1678216416.0,286046998.0,N
1678216435.8,286046997.4,N
1678216455.7,286046998.7,N
1678216475.5,286047010.7,N
1678216495.3,286047005.2,N
1678216515.2,286047003.5,N
1678216535.0,286047000.5,N
1678216535.9,286047000.5,N
1678216555.8,286046996.5,N
1678216575.6,286046998.7,N
1678216595.4,286047001.4,N
1678216615.3,286047013.4,Y
1678216635.1,286047015.2,P
1678216655.8,286047008.0,N
1678216675.7,286047009.6,N
1678216695.5,286047009.4,N
1678216715.4,286047006.8,N
1678216735.2,286047006.8,N
1678216755.0,286047002.7,N
1678216755.9,286047002.7,N
1678216775.8,286046999.0,N
1678216795.6,286046999.0,N
1678216815.4,286047002.0,N
1678216835.3,286046996.8,N
1678216855.1,286046996.8,N
1678216875.9,286046998.8,N
1678216895.7,286046999.1,N
1678216915.5,286046997.7,N
1678216935.4,286046997.0,N
1678216955.2,286047001.5,N
1678216975.0,286047012.1,N
1678216975.9,286047012.1,N
1678216995.8,286047016.3,N
1678217015.6,286047007.8,N
1678217035.4,286047003.7,N
1678217055.3,286047005.7,N
1678217075.1,286047013.1,N
1678217095.9,286047007.7,N
1678217115.7,286047008.6,N
1678217135.5,286047009.5,N
1678217155.4,286047006.9,N
1678217175.2,286046999.7,N
1678217195.0,286047000.0,N
1678217196.0,286047000.0,N
1678217215.8,286047006.0,N
1678217235.6,286046999.7,N
1678217255.5,286046999.0,N
1678217275.3,286047000.8,N
1678217295.1,286047000.7,N
1678217315.9,286046994.1,N
1678217335.7,286046991.9,N
1678217355.6,286046996.4,N
1678217375.4,286047002.1,N
1678217395.2,286046997.4,N
1678217415.1,286046991.9,N
1678217416.0,286046991.9,N
1678217435.8,286046990.7,N
1678217455.6,286046998.0,N
1678217475.5,286046995.1,N
1678217495.3,286046996.4,N
1678217515.2,286046994.9,N
1678217535.9,286046995.9,N
1678217555.7,286046995.3,N
1678217575.6,286046999.3,N
1678217595.4,286046998.8,N
1678217615.2,286046996.9,N
1678217635.1,286047001.1,N
1678217636.0,286047001.1,N
1678217655.8,286047000.1,N
1678217675.7,286047001.4,N
1678217695.5,286047002.8,N
1678217715.3,286046996.6,N
1678217735.2,286046997.3,N
1678217755.0,286047001.1,N
1678217755.9,286047001.1,N
1678217775.7,286047000.8,N
1678217795.6,286046998.6,N
1678217815.4,286046999.7,N
1678217835.3,286047004.9,N
1678217855.1,286047005.3,N
1678217856.0,286047005.3,N
1678217875.8,286047010.6,N
1678217895.7,286047006.4,N
1678217915.5,286047005.2,N
1678217935.3,286047004.4,N
1678217955.2,286046997.5,N
1678217975.0,286047000.3,N
1678217975.9,286047000.3,N
1678217995.8,286046999.2,N
1678218015.6,286046998.9,N
1678218035.4,286047000.9,N
1678218055.3,286047002.8,N
1678218075.1,286047000.5,N
1678218095.8,286047000.7,N
1678218115.7,286046998.3,N
1678218135.5,286046996.6,N
1678218155.4,286046998.1,N
1678218175.2,286046999.5,N
1678218195.0,286047000.0,N
1678218195.9,286047000.0,N
1678218215.8,286047004.4,N
1678218235.6,286047010.8,Y
1678218255.5,286047009.1,P
1678218275.3,286047013.2,P
1678218295.1,286047012.8,N
1678218315.9,286047008.0,N
1678218335.7,286047003.2,N
1678218355.5,286046999.9,N
1678218375.4,286047003.0,N
1678218395.2,286047006.1,N
1678218415.1,286047003.7,N
1678218416.0,286047003.7,N
1678218435.8,286047007.7,N
1678218455.6,286047009.8,N
1678218475.5,286047009.0,N
1678218495.3,286047004.2,N
1678218515.1,286047002.5,N
1678218535.9,286046999.7,N
1678218555.7,286047010.7,N
1678218575.6,286047012.8,Y
1678218595.4,286047004.7,P
1678218615.2,286047001.5,N
1678218635.1,286047005.6,N
1678218636.0,286047005.6,Y
1678218655.8,286047003.9,P
1678218675.7,286047005.0,P
1678218695.5,286047008.6,P
1678218715.3,286047006.5,Y
1678218735.2,286047002.7,P
1678218755.0,286046998.4,N
1678218755.9,286046998.4,N
1678218775.8,286046999.3,N
1678218795.6,286047006.4,N
1678218815.5,286047010.2,Y
1678218835.3,286047014.6,P
1678218855.1,286047011.1,N
1678218875.9,286047010.3,N
1678218895.7,286047010.2,N
1678218915.6,286047009.4,N
1678218935.4,286047010.7,N
1678218955.2,286047013.6,Y
1678218975.1,286047004.2,P
1678218976.0,286047004.2,N
1678218995.8,286046996.6,N
1678219015.7,286046998.8,N
1678219035.5,286047002.5,N
1678219055.3,286047003.1,N
1678219075.2,286047003.5,N
1678219095.0,286047010.1,N
1678219095.9,286047010.1,N
1678219115.8,286047012.0,N
1678219135.6,286047012.1,N
1678219155.4,286047010.5,N
1678219175.3,286047008.2,N
1678219195.1,286047011.0,N
